Time,TemperatureF,DewpointF,PressureIn,WindDirection,WindDirectionDegrees,WindSpeedMPH,WindSpeedGustMPH,Humidity,HourlyPrecipIn,Conditions,Clouds,dailyrainin,SoftwareType,DateUTC
2013-02-12 00:04:00,50.4,36.6,29.77,NNW,329,4.0,10.0,59,0.00,,,0.00,Wunderground PWS Mod,2013-02-12 05:04:00,
2013-02-12 00:14:00,50.6,33.6,29.78,NNW,344,6.0,10.0,52,0.00,,,0.00,Wunderground PWS Mod,2013-02-12 05:14:00,
2013-02-12 00:16:00,50.6,33.1,29.78,NW,317,6.0,10.0,51,0.00,,,0.00,Wunderground PWS Mod,2013-02-12 05:16:00,
2013-02-12 00:18:00,50.4,32.9,29.82,NW,315,4.0,11.0,51,0.00,,,0.00,Wunderground PWS Mod,2013-02-12 05:18:00,
2013-02-12 00:24:00,50.3,32.8,29.78,NW,311,2.0,10.0,51,0.00,,,0.00,Wunderground PWS Mod,2013-02-12 05:24:00,
2013-02-12 00:34:00,49.7,32.3,29.79,NW,326,3.0,10.0,51,0.00,,,0.00,Wunderground PWS Mod,2013-02-12 05:34:00,
2013-02-12 00:44:00,49.3,32.4,29.79,NNW,334,1.0,11.0,52,0.00,,,0.00,Wunderground PWS Mod,2013-02-12 05:44:00,
2013-02-12 00:50:00,49.2,31.8,29.82,NNW,338,3.0,9.0,51,0.00,,,0.00,Wunderground PWS Mod,2013-02-12 05:50:00,
2013-02-12 00:52:00,49.2,31.8,29.82,NNW,338,3.0,9.0,51,0.00,,,0.00,Wunderground PWS Mod,2013-02-12 05:52:00,
2013-02-12 00:54:00,49.0,31.6,29.79,NNW,333,2.0,11.0,51,0.00,,,0.00,Wunderground PWS Mod,2013-02-12 05:54:00,
2013-02-12 00:58:00,48.8,31.5,29.79,NNW,334,9.0,11.0,51,0.00,,,0.00,Wunderground PWS Mod,2013-02-12 05:58:00,
2013-02-12 01:04:00,48.8,31.5,29.79,NW,323,2.0,11.0,51,0.00,,,0.00,Wunderground PWS Mod,2013-02-12 06:04:00,
2013-02-12 01:10:00,49.2,31.8,29.82,NNW,338,3.0,9.0,51,0.00,,,0.00,Wunderground PWS Mod,2013-02-12 06:10:00,
2013-02-12 01:12:00,49.2,31.8,29.82,NNW,338,3.0,9.0,51,0.00,,,0.00,Wunderground PWS Mod,2013-02-12 06:12:00,
2013-02-12 01:14:00,48.5,31.2,29.80,NNW,327,8.0,11.0,51,0.00,,,0.00,Wunderground PWS Mod,2013-02-12 06:14:00,
2013-02-12 01:24:00,48.2,31.4,29.80,WNW,302,1.0,11.0,52,0.00,,,0.00,Wunderground PWS Mod,2013-02-12 06:24:00,
2013-02-12 01:34:00,48.1,31.8,29.80,NW,316,2.0,11.0,53,0.00,,,0.00,Wunderground PWS Mod,2013-02-12 06:34:00,
2013-02-12 01:44:00,47.7,30.9,29.80,WNW,303,1.0,11.0,52,0.00,,,0.00,Wunderground PWS Mod,2013-02-12 06:44:00,
2013-02-12 01:46:00,48.4,32.0,29.82,NNW,338,3.0,10.0,53,0.00,,,0.00,Wunderground PWS Mod,2013-02-12 06:46:00,
2013-02-12 01:54:00,47.3,31.5,29.81,WNW,296,1.0,11.0,54,0.00,,,0.00,Wunderground PWS Mod,2013-02-12 06:54:00,
2013-02-12 02:04:00,46.9,30.6,29.81,WNW,296,4.0,10.0,53,0.00,,,0.00,Wunderground PWS Mod,2013-02-12 07:04:00,
2013-02-12 02:10:00,47.6,31.3,29.84,WNW,293,2.0,7.0,53,0.00,,,0.00,Wunderground PWS Mod,2013-02-12 07:10:00,
2013-02-12 02:12:00,47.6,31.3,29.84,WNW,293,2.0,7.0,53,0.00,,,0.00,Wunderground PWS Mod,2013-02-12 07:12:00,
2013-02-12 02:14:00,46.5,30.7,29.82,West,266,2.0,10.0,54,0.00,,,0.00,Wunderground PWS Mod,2013-02-12 07:14:00,
2013-02-12 02:24:00,46.2,30.5,29.82,West,276,5.0,10.0,54,0.00,,,0.00,Wunderground PWS Mod,2013-02-12 07:24:00,
2013-02-12 02:34:00,46.2,30.0,29.81,West,278,2.0,10.0,53,0.00,,,0.00,Wunderground PWS Mod,2013-02-12 07:34:00,
2013-02-12 02:44:00,46.0,29.8,29.81,West,270,0.0,10.0,53,0.00,,,0.00,Wunderground PWS Mod,2013-02-12 07:44:00,
2013-02-12 02:48:00,46.0,29.8,29.84,WNW,293,3.0,8.0,53,0.00,,,0.00,Wunderground PWS Mod,2013-02-12 07:48:00,
2013-02-12 02:54:00,46.0,29.3,29.82,West,262,4.0,10.0,52,0.00,,,0.00,Wunderground PWS Mod,2013-02-12 07:54:00,
2013-02-12 03:04:00,45.9,29.7,29.82,WSW,248,1.0,8.0,53,0.00,,,0.00,Wunderground PWS Mod,2013-02-12 08:04:00,
2013-02-12 03:14:00,45.8,28.7,29.81,West,278,0.0,8.0,51,0.00,,,0.00,Wunderground PWS Mod,2013-02-12 08:14:00,
2013-02-12 03:18:00,45.8,28.2,29.83,West,270,2.0,4.0,50,0.00,,,0.00,Wunderground PWS Mod,2013-02-12 08:18:00,
2013-02-12 03:24:00,45.8,28.7,29.81,West,278,1.0,8.0,51,0.00,,,0.00,Wunderground PWS Mod,2013-02-12 08:24:00,
2013-02-12 03:34:00,45.7,28.1,29.81,WNW,284,2.0,8.0,50,0.00,,,0.00,Wunderground PWS Mod,2013-02-12 08:34:00,
2013-02-12 03:44:00,45.2,28.6,29.82,WSW,248,1.0,8.0,52,0.00,,,0.00,Wunderground PWS Mod,2013-02-12 08:44:00,
2013-02-12 03:48:00,45.3,28.7,29.84,WNW,293,2.0,5.0,52,0.00,,,0.00,Wunderground PWS Mod,2013-02-12 08:48:00,
2013-02-12 03:54:00,45.1,27.6,29.81,WNW,291,3.0,8.0,50,0.00,,,0.00,Wunderground PWS Mod,2013-02-12 08:54:00,
2013-02-12 04:04:00,44.4,27.9,29.82,WNW,302,2.0,4.0,52,0.00,,,0.00,Wunderground PWS Mod,2013-02-12 09:04:00,
2013-02-12 04:14:00,44.7,27.7,29.83,NNW,329,4.0,5.0,51,0.00,,,0.00,Wunderground PWS Mod,2013-02-12 09:14:00,
2013-02-12 04:16:00,45.3,28.7,29.84,WNW,293,2.0,5.0,52,0.00,,,0.00,Wunderground PWS Mod,2013-02-12 09:16:00,
2013-02-12 04:24:00,45.6,27.5,29.83,NW,317,5.0,6.0,49,0.00,,,0.00,Wunderground PWS Mod,2013-02-12 09:24:00,
2013-02-12 04:34:00,45.8,27.7,29.83,WNW,288,7.0,8.0,49,0.00,,,0.00,Wunderground PWS Mod,2013-02-12 09:34:00,
2013-02-12 04:44:00,45.8,27.7,29.83,NW,320,10.0,10.0,49,0.00,,,0.00,Wunderground PWS Mod,2013-02-12 09:44:00,
2013-02-12 04:50:00,46.1,25.9,29.87,NW,315,8.0,23.0,45,0.00,,,0.00,Wunderground PWS Mod,2013-02-12 09:50:00,
2013-02-12 04:52:00,46.1,25.9,29.87,NW,315,8.0,23.0,45,0.00,,,0.00,Wunderground PWS Mod,2013-02-12 09:52:00,
2013-02-12 04:54:00,46.5,27.3,29.84,NNW,337,9.0,15.0,47,0.00,,,0.00,Wunderground PWS Mod,2013-02-12 09:54:00,
2013-02-12 05:04:00,46.9,26.6,29.84,NW,316,9.0,15.0,45,0.00,,,0.00,Wunderground PWS Mod,2013-02-12 10:04:00,
2013-02-12 05:10:00,46.1,25.9,29.87,NW,315,8.0,23.0,45,0.00,,,0.00,Wunderground PWS Mod,2013-02-12 10:10:00,
2013-02-12 05:12:00,46.1,25.9,29.87,NW,315,8.0,23.0,45,0.00,,,0.00,Wunderground PWS Mod,2013-02-12 10:12:00,
2013-02-12 05:14:00,46.9,26.6,29.86,NNW,338,6.0,23.0,45,0.00,,,0.00,Wunderground PWS Mod,2013-02-12 10:14:00,
2013-02-12 05:24:00,46.7,25.4,29.86,NW,312,10.0,23.0,43,0.00,,,0.00,Wunderground PWS Mod,2013-02-12 10:24:00,
2013-02-12 05:34:00,46.7,24.8,29.86,NNW,329,14.0,23.0,42,0.00,,,0.00,Wunderground PWS Mod,2013-02-12 10:34:00,
2013-02-12 05:44:00,46.5,25.2,29.86,WNW,300,9.0,24.0,43,0.00,,,0.00,Wunderground PWS Mod,2013-02-12 10:44:00,
2013-02-12 05:46:00,46.8,25.5,29.89,NW,315,11.0,24.0,43,0.00,,,0.00,Wunderground PWS Mod,2013-02-12 10:46:00,
2013-02-12 05:54:00,46.4,25.1,29.86,NW,326,11.0,24.0,43,0.00,,,0.00,Wunderground PWS Mod,2013-02-12 10:54:00,
2013-02-12 06:04:00,46.1,24.8,29.87,WNW,295,4.0,24.0,43,0.00,,,0.00,Wunderground PWS Mod,2013-02-12 11:04:00,
2013-02-12 06:10:00,46.5,25.2,29.89,NW,315,9.0,21.0,43,0.00,,,0.00,Wunderground PWS Mod,2013-02-12 11:10:00,
2013-02-12 06:12:00,46.5,25.2,29.89,NW,315,9.0,21.0,43,0.00,,,0.00,Wunderground PWS Mod,2013-02-12 11:12:00,
2013-02-12 06:14:00,46.0,24.7,29.87,WNW,300,6.0,24.0,43,0.00,,,0.00,Wunderground PWS Mod,2013-02-12 11:14:00,
2013-02-12 06:24:00,45.9,25.2,29.88,WNW,297,5.0,24.0,44,0.00,,,0.00,Wunderground PWS Mod,2013-02-12 11:24:00,
2013-02-12 06:34:00,45.7,25.0,29.88,West,273,3.0,24.0,44,0.00,,,0.00,Wunderground PWS Mod,2013-02-12 11:34:00,
2013-02-12 06:44:00,45.6,25.5,29.89,West,275,5.0,24.0,45,0.00,,,0.00,Wunderground PWS Mod,2013-02-12 11:44:00,
2013-02-12 06:48:00,45.6,25.5,29.92,West,270,3.0,7.0,45,0.00,,,0.00,Wunderground PWS Mod,2013-02-12 11:48:00,
2013-02-12 06:54:00,45.5,25.4,29.89,West,271,4.0,24.0,45,0.00,,,0.00,Wunderground PWS Mod,2013-02-12 11:54:00,
2013-02-12 07:04:00,45.4,25.3,29.90,WNW,288,4.0,12.0,45,0.00,,,0.00,Wunderground PWS Mod,2013-02-12 12:04:00,
2013-02-12 07:10:00,45.6,25.5,29.92,West,270,3.0,7.0,45,0.00,,,0.00,Wunderground PWS Mod,2013-02-12 12:10:00,
2013-02-12 07:12:00,45.6,25.5,29.92,West,270,3.0,7.0,45,0.00,,,0.00,Wunderground PWS Mod,2013-02-12 12:12:00,
2013-02-12 07:14:00,45.4,25.3,29.90,WNW,284,3.0,12.0,45,0.00,,,0.00,Wunderground PWS Mod,2013-02-12 12:14:00,
2013-02-12 07:24:00,45.4,25.3,29.91,WNW,292,5.0,12.0,45,0.00,,,0.00,Wunderground PWS Mod,2013-02-12 12:24:00,
2013-02-12 07:34:00,45.6,25.5,29.91,NW,308,2.0,12.0,45,0.00,,,0.00,Wunderground PWS Mod,2013-02-12 12:34:00,
2013-02-12 07:44:00,45.7,25.5,29.91,NW,306,4.0,12.0,45,0.00,,,0.00,Wunderground PWS Mod,2013-02-12 12:44:00,
2013-02-12 07:46:00,45.4,25.3,29.93,WNW,293,4.0,8.0,45,0.00,,,0.00,Wunderground PWS Mod,2013-02-12 12:46:00,
2013-02-12 07:54:00,45.9,25.7,29.91,NNW,339,3.0,12.0,45,0.00,,,0.00,Wunderground PWS Mod,2013-02-12 12:54:00,
2013-02-12 08:04:00,46.1,25.9,29.92,NW,322,4.0,8.0,45,0.00,,,0.00,Wunderground PWS Mod,2013-02-12 13:04:00,
2013-02-12 08:14:00,46.4,25.6,29.93,NNW,340,3.0,8.0,44,0.00,,,0.00,Wunderground PWS Mod,2013-02-12 13:14:00,
2013-02-12 08:16:00,45.7,25.0,29.95,NW,315,3.0,7.0,44,0.00,,,0.00,Wunderground PWS Mod,2013-02-12 13:16:00,
2013-02-12 08:24:00,45.8,25.6,29.93,NNW,328,3.0,8.0,45,0.00,,,0.00,Wunderground PWS Mod,2013-02-12 13:24:00,
2013-02-12 08:34:00,45.3,25.7,29.92,NW,314,6.0,8.0,46,0.00,,,0.00,Wunderground PWS Mod,2013-02-12 13:34:00,
2013-02-12 08:44:00,45.2,26.1,29.93,NNW,331,5.0,8.0,47,0.00,,,0.00,Wunderground PWS Mod,2013-02-12 13:44:00,
2013-02-12 08:48:00,45.5,24.3,29.95,NW,315,4.0,11.0,43,0.00,,,0.00,Wunderground PWS Mod,2013-02-12 13:48:00,
2013-02-12 08:54:00,45.8,25.6,29.94,NNW,334,4.0,8.0,45,0.00,,,0.00,Wunderground PWS Mod,2013-02-12 13:54:00,
2013-02-12 09:04:00,46.4,25.1,29.93,NW,305,5.0,8.0,43,0.00,,,0.00,Wunderground PWS Mod,2013-02-12 14:04:00,
2013-02-12 09:14:00,46.7,25.4,29.93,NNW,331,9.0,9.0,43,0.00,,,0.00,Wunderground PWS Mod,2013-02-12 14:14:00,
2013-02-12 09:18:00,46.8,23.7,29.96,NW,315,6.0,14.0,40,0.00,,,0.00,Wunderground PWS Mod,2013-02-12 14:18:00,
2013-02-12 09:24:00,47.0,25.1,29.93,North,355,6.0,11.0,42,0.00,,,0.00,Wunderground PWS Mod,2013-02-12 14:24:00,
2013-02-12 09:34:00,47.2,24.1,29.94,NW,309,7.0,11.0,40,0.00,,,0.00,Wunderground PWS Mod,2013-02-12 14:34:00,
2013-02-12 09:44:00,47.6,24.4,29.94,NNW,348,8.0,14.0,40,0.00,,,0.00,Wunderground PWS Mod,2013-02-12 14:44:00,
2013-02-12 09:50:00,47.6,21.9,29.97,NNW,338,9.0,23.0,36,0.00,,,0.00,Wunderground PWS Mod,2013-02-12 14:50:00,
2013-02-12 09:52:00,47.6,21.9,29.97,NNW,338,9.0,23.0,36,0.00,,,0.00,Wunderground PWS Mod,2013-02-12 14:52:00,
2013-02-12 09:54:00,47.8,23.4,29.94,NW,309,9.0,23.0,38,0.00,,,0.00,Wunderground PWS Mod,2013-02-12 14:54:00,
2013-02-12 10:04:00,48.0,22.3,29.95,NW,314,14.0,14.0,36,0.00,,,0.00,Wunderground PWS Mod,2013-02-12 15:04:00,
2013-02-12 10:10:00,47.6,21.9,29.97,NNW,338,9.0,23.0,36,0.00,,,0.00,Wunderground PWS Mod,2013-02-12 15:10:00,
2013-02-12 10:12:00,47.6,21.9,29.97,NNW,338,9.0,23.0,36,0.00,,,0.00,Wunderground PWS Mod,2013-02-12 15:12:00,
2013-02-12 10:14:00,48.0,20.9,29.96,NW,321,13.0,23.0,34,0.00,,,0.00,Wunderground PWS Mod,2013-02-12 15:14:00,
2013-02-12 10:24:00,48.5,22.7,29.96,WNW,284,5.0,23.0,36,0.00,,,0.00,Wunderground PWS Mod,2013-02-12 15:24:00,
2013-02-12 10:34:00,49.0,22.5,29.97,NNW,327,9.0,23.0,35,0.00,,,0.00,Wunderground PWS Mod,2013-02-12 15:34:00,
2013-02-12 10:44:00,48.8,21.6,29.97,NNW,329,11.0,24.0,34,0.00,,,0.00,Wunderground PWS Mod,2013-02-12 15:44:00,
2013-02-12 10:48:00,48.9,21.0,29.99,NNW,338,9.0,22.0,33,0.00,,,0.00,Wunderground PWS Mod,2013-02-12 15:48:00,
2013-02-12 10:54:00,48.9,21.7,29.96,NW,312,16.0,24.0,34,0.00,,,0.00,Wunderground PWS Mod,2013-02-12 15:54:00,
2013-02-12 11:04:00,49.3,22.1,29.96,NW,320,11.0,24.0,34,0.00,,,0.00,Wunderground PWS Mod,2013-02-12 16:04:00,
2013-02-12 11:14:00,49.4,22.2,29.96,NW,307,6.0,24.0,34,0.00,,,0.00,Wunderground PWS Mod,2013-02-12 16:14:00,
2013-02-12 11:18:00,49.5,21.5,29.99,NW,315,9.0,23.0,33,0.00,,,0.00,Wunderground PWS Mod,2013-02-12 16:18:00,
2013-02-12 11:24:00,49.7,21.7,29.96,NW,326,13.0,24.0,33,0.00,,,0.00,Wunderground PWS Mod,2013-02-12 16:24:00,
2013-02-12 11:34:00,49.8,21.8,29.96,NNW,331,8.0,24.0,33,0.00,,,0.00,Wunderground PWS Mod,2013-02-12 16:34:00,
2013-02-12 11:44:00,49.8,21.8,29.96,NW,311,11.0,24.0,33,0.00,,,0.00,Wunderground PWS Mod,2013-02-12 16:44:00,
2013-02-12 11:46:00,49.5,21.5,29.99,NW,315,9.0,23.0,33,0.00,,,0.00,Wunderground PWS Mod,2013-02-12 16:46:00,
2013-02-12 11:54:00,50.5,22.4,29.96,NW,318,10.0,24.0,33,0.00,,,0.00,Wunderground PWS Mod,2013-02-12 16:54:00,
2013-02-12 12:04:00,50.8,22.7,29.95,NW,309,12.0,23.0,33,0.00,,,0.00,Wunderground PWS Mod,2013-02-12 17:04:00,
2013-02-12 12:14:00,50.4,22.3,29.95,West,271,10.0,23.0,33,0.00,,,0.00,Wunderground PWS Mod,2013-02-12 17:14:00,
2013-02-12 12:16:00,50.8,23.4,29.96,WNW,293,10.0,22.0,34,0.00,,,0.00,Wunderground PWS Mod,2013-02-12 17:16:00,
2013-02-12 12:23:00,50.8,22.7,29.94,WNW,298,15.0,23.0,33,0.00,,,0.00,Wunderground PWS Mod,2013-02-12 17:23:00,
2013-02-12 12:34:00,51.6,23.4,29.94,NNW,329,7.0,23.0,33,0.00,,,0.00,Wunderground PWS Mod,2013-02-12 17:34:00,
2013-02-12 12:44:00,51.6,23.4,29.94,NNW,327,14.0,23.0,33,0.00,,,0.00,Wunderground PWS Mod,2013-02-12 17:44:00,
2013-02-12 12:48:00,51.8,23.6,29.97,NNW,338,8.0,18.0,33,0.00,,,0.00,Wunderground PWS Mod,2013-02-12 17:48:00,
2013-02-12 12:54:00,51.7,23.5,29.94,NW,326,8.0,23.0,33,0.00,,,0.00,Wunderground PWS Mod,2013-02-12 17:54:00,
2013-02-12 13:03:00,51.9,23.7,29.94,NNW,335,2.0,22.0,33,0.00,,,0.00,Wunderground PWS Mod,2013-02-12 18:03:00,
2013-02-12 13:14:00,52.1,23.1,29.93,NW,325,11.0,22.0,32,0.00,,,0.00,Wunderground PWS Mod,2013-02-12 18:14:00,
2013-02-12 13:18:00,52.1,23.8,29.94,NNW,338,7.0,21.0,33,0.00,,,0.00,Wunderground PWS Mod,2013-02-12 18:18:00,
2013-02-12 13:24:00,52.0,23.8,29.92,NW,323,4.0,22.0,33,0.00,,,0.00,Wunderground PWS Mod,2013-02-12 18:24:00,
2013-02-12 13:34:00,52.6,23.5,29.92,WNW,292,8.0,22.0,32,0.00,,,0.00,Wunderground PWS Mod,2013-02-12 18:34:00,
2013-02-12 13:44:00,52.7,24.4,29.91,North,4,8.0,22.0,33,0.00,,,0.00,Wunderground PWS Mod,2013-02-12 18:44:00,
2013-02-12 13:46:00,52.1,23.8,29.94,NNW,338,7.0,21.0,33,0.00,,,0.00,Wunderground PWS Mod,2013-02-12 18:46:00,
2013-02-12 13:54:00,52.7,24.4,29.91,NW,319,9.0,22.0,33,0.00,,,0.00,Wunderground PWS Mod,2013-02-12 18:54:00,
2013-02-12 14:04:00,52.4,23.4,29.89,WNW,302,5.0,21.0,32,0.00,,,0.00,Wunderground PWS Mod,2013-02-12 19:04:00,
2013-02-12 14:14:00,52.8,23.7,29.89,NNW,338,7.0,21.0,32,0.00,,,0.00,Wunderground PWS Mod,2013-02-12 19:14:00,
2013-02-12 14:18:00,52.8,24.5,29.91,NW,315,6.0,14.0,33,0.00,,,0.00,Wunderground PWS Mod,2013-02-12 19:18:00,
2013-02-12 14:24:00,52.9,23.8,29.89,NW,309,3.0,21.0,32,0.00,,,0.00,Wunderground PWS Mod,2013-02-12 19:24:00,
2013-02-12 14:34:00,53.2,24.8,29.89,North,3,5.0,21.0,33,0.00,,,0.00,Wunderground PWS Mod,2013-02-12 19:34:00,
2013-02-12 14:43:00,53.4,24.2,29.87,NW,318,10.0,21.0,32,0.00,,,0.00,Wunderground PWS Mod,2013-02-12 19:43:00,
2013-02-12 14:46:00,53.5,24.3,29.85,North,0,6.0,15.0,32,0.00,,,0.00,Wunderground PWS Mod,2013-02-12 19:46:00,
2013-02-12 14:54:00,53.7,24.5,29.85,NNW,346,6.0,21.0,32,0.00,,,0.00,Wunderground PWS Mod,2013-02-12 19:54:00,
2013-02-12 15:04:00,53.6,23.7,29.81,NNE,27,13.0,14.0,31,0.00,,,0.00,Wunderground PWS Mod,2013-02-12 20:04:00,
2013-02-12 15:13:00,53.5,24.3,29.84,North,358,6.0,15.0,32,0.00,,,0.00,Wunderground PWS Mod,2013-02-12 20:13:00,
2013-02-12 15:16:00,53.7,23.7,29.90,NW,315,6.0,16.0,31,0.00,,,0.00,Wunderground PWS Mod,2013-02-12 20:16:00,
2013-02-12 15:24:00,53.8,23.8,29.87,WNW,283,3.0,15.0,31,0.00,,,0.00,Wunderground PWS Mod,2013-02-12 20:24:00,
2013-02-12 15:34:00,54.0,24.0,29.88,NW,321,7.0,15.0,31,0.00,,,0.00,Wunderground PWS Mod,2013-02-12 20:34:00,
2013-02-12 15:44:00,53.9,23.9,29.89,NNW,339,4.0,16.0,31,0.00,,,0.00,Wunderground PWS Mod,2013-02-12 20:44:00,
2013-02-12 15:50:00,54.2,23.4,29.93,WNW,293,6.0,11.0,30,0.00,,,0.00,Wunderground PWS Mod,2013-02-12 20:50:00,
2013-02-12 15:52:00,54.2,23.4,29.93,WNW,293,6.0,11.0,30,0.00,,,0.00,Wunderground PWS Mod,2013-02-12 20:52:00,
2013-02-12 15:54:00,54.5,24.4,29.90,WNW,292,4.0,16.0,31,0.00,,,0.00,Wunderground PWS Mod,2013-02-12 20:54:00,
2013-02-12 16:04:00,54.6,23.7,29.91,NW,319,3.0,16.0,30,0.00,,,0.00,Wunderground PWS Mod,2013-02-12 21:04:00,
2013-02-12 16:10:00,54.2,23.4,29.93,WNW,293,6.0,11.0,30,0.00,,,0.00,Wunderground PWS Mod,2013-02-12 21:10:00,
2013-02-12 16:12:00,54.2,23.4,29.93,WNW,293,6.0,11.0,30,0.00,,,0.00,Wunderground PWS Mod,2013-02-12 21:12:00,
2013-02-12 16:14:00,54.9,24.8,29.91,WNW,289,5.0,16.0,31,0.00,,,0.00,Wunderground PWS Mod,2013-02-12 21:14:00,
2013-02-12 16:24:00,55.1,24.2,29.90,NW,305,8.0,16.0,30,0.00,,,0.00,Wunderground PWS Mod,2013-02-12 21:24:00,
2013-02-12 16:34:00,54.9,24.0,29.90,NW,314,5.0,16.0,30,0.00,,,0.00,Wunderground PWS Mod,2013-02-12 21:34:00,
2013-02-12 16:44:00,54.9,24.0,29.90,NW,315,4.0,16.0,30,0.00,,,0.00,Wunderground PWS Mod,2013-02-12 21:44:00,
2013-02-12 16:50:00,55.1,24.2,29.92,NW,315,3.0,7.0,30,0.00,,,0.00,Wunderground PWS Mod,2013-02-12 21:50:00,
2013-02-12 16:52:00,55.1,24.2,29.92,NW,315,3.0,7.0,30,0.00,,,0.00,Wunderground PWS Mod,2013-02-12 21:52:00,
2013-02-12 16:53:00,55.2,25.1,29.90,NW,315,2.0,16.0,31,0.00,,,0.00,Wunderground PWS Mod,2013-02-12 21:53:00,
2013-02-12 16:54:00,55.1,24.2,29.92,NW,315,3.0,7.0,30,0.00,,,0.00,Wunderground PWS Mod,2013-02-12 21:54:00,
2013-02-12 17:04:00,55.7,24.7,29.89,North,0,2.0,12.0,30,0.00,,,0.00,Wunderground PWS Mod,2013-02-12 22:04:00,
2013-02-12 17:10:00,55.1,24.2,29.92,NW,315,3.0,7.0,30,0.00,,,0.00,Wunderground PWS Mod,2013-02-12 22:10:00,
2013-02-12 17:12:00,55.1,24.2,29.92,NW,315,3.0,7.0,30,0.00,,,0.00,Wunderground PWS Mod,2013-02-12 22:12:00,
2013-02-12 17:13:00,55.6,24.6,29.90,North,0,1.0,12.0,30,0.00,,,0.00,Wunderground PWS Mod,2013-02-12 22:13:00,
2013-02-12 17:24:00,55.3,25.1,29.91,North,0,2.0,12.0,31,0.00,,,0.00,Wunderground PWS Mod,2013-02-12 22:24:00,
2013-02-12 17:34:00,54.2,25.7,29.91,North,0,0.0,12.0,33,0.00,,,0.00,Wunderground PWS Mod,2013-02-12 22:34:00,
2013-02-12 17:43:00,54.2,25.7,29.92,North,0,1.0,12.0,33,0.00,,,0.00,Wunderground PWS Mod,2013-02-12 22:43:00,
2013-02-12 17:48:00,52.8,27.9,29.95,SE,135,3.0,10.0,38,0.00,,,0.00,Wunderground PWS Mod,2013-02-12 22:48:00,
2013-02-12 17:54:00,51.0,25.0,29.93,SE,126,7.0,12.0,36,0.00,,,0.00,Wunderground PWS Mod,2013-02-12 22:54:00,
2013-02-12 18:03:00,49.5,24.9,29.93,SE,131,8.0,8.0,38,0.00,,,0.00,Wunderground PWS Mod,2013-02-12 23:03:00,
2013-02-12 18:13:00,48.8,24.9,29.93,ESE,117,10.0,10.0,39,0.00,,,0.00,Wunderground PWS Mod,2013-02-12 23:13:00,
2013-02-12 18:18:00,48.8,26.1,29.95,SE,135,5.0,11.0,41,0.00,,,0.00,Wunderground PWS Mod,2013-02-12 23:18:00,
2013-02-12 18:24:00,48.6,25.9,29.93,SE,131,3.0,10.0,41,0.00,,,0.00,Wunderground PWS Mod,2013-02-12 23:24:00,
2013-02-12 18:34:00,48.2,26.2,29.92,ESE,116,4.0,10.0,42,0.00,,,0.00,Wunderground PWS Mod,2013-02-12 23:34:00,
2013-02-12 18:43:00,48.2,26.2,29.93,ESE,116,2.0,11.0,42,0.00,,,0.00,Wunderground PWS Mod,2013-02-12 23:43:00,
2013-02-12 18:46:00,48.1,26.6,29.97,SE,135,2.0,5.0,43,0.00,,,0.00,Wunderground PWS Mod,2013-02-12 23:46:00,
2013-02-12 18:54:00,48.2,26.7,29.94,SE,126,1.0,11.0,43,0.00,,,0.00,Wunderground PWS Mod,2013-02-12 23:54:00,
2013-02-12 19:04:00,47.7,26.3,29.94,SE,126,1.0,11.0,43,0.00,,,0.00,Wunderground PWS Mod,2013-02-13 00:04:00,
2013-02-12 19:13:00,46.5,26.8,29.94,ESE,113,3.0,11.0,46,0.00,,,0.00,Wunderground PWS Mod,2013-02-13 00:13:00,
2013-02-12 19:16:00,46.2,27.1,29.96,East,90,2.0,4.0,47,0.00,,,0.00,Wunderground PWS Mod,2013-02-13 00:16:00,
2013-02-12 19:24:00,45.4,26.3,29.93,East,94,3.0,11.0,47,0.00,,,0.00,Wunderground PWS Mod,2013-02-13 00:24:00,
2013-02-12 19:34:00,45.8,26.2,29.93,East,94,2.0,11.0,46,0.00,,,0.00,Wunderground PWS Mod,2013-02-13 00:34:00,
2013-02-12 19:43:00,45.6,26.5,29.93,East,94,2.0,11.0,47,0.00,,,0.00,Wunderground PWS Mod,2013-02-13 00:43:00,
2013-02-12 19:48:00,45.4,26.8,29.95,East,90,2.0,4.0,48,0.00,,,0.00,Wunderground PWS Mod,2013-02-13 00:48:00,
2013-02-12 19:53:00,45.1,26.1,29.92,East,94,2.0,11.0,47,0.00,,,0.00,Wunderground PWS Mod,2013-02-13 00:53:00,
2013-02-12 20:04:00,44.9,25.9,29.92,East,94,2.0,4.0,47,0.00,,,0.00,Wunderground PWS Mod,2013-02-13 01:04:00,
2013-02-12 20:13:00,44.2,26.2,29.92,East,79,7.0,7.0,49,0.00,,,0.00,Wunderground PWS Mod,2013-02-13 01:13:00,
2013-02-12 20:18:00,43.9,27.9,29.95,East,90,6.0,11.0,53,0.00,,,0.00,Wunderground PWS Mod,2013-02-13 01:18:00,
2013-02-12 20:24:00,43.5,26.6,29.92,ENE,69,7.0,7.0,51,0.00,,,0.00,Wunderground PWS Mod,2013-02-13 01:24:00,
2013-02-12 20:33:00,42.6,26.6,29.92,ENE,77,3.0,7.0,53,0.00,,,0.00,Wunderground PWS Mod,2013-02-13 01:33:00,
2013-02-12 20:44:00,42.2,26.7,29.92,East,94,6.0,11.0,54,0.00,,,0.00,Wunderground PWS Mod,2013-02-13 01:44:00,
2013-02-12 20:50:00,42.1,27.5,29.95,East,90,5.0,10.0,56,0.00,,,0.00,Wunderground PWS Mod,2013-02-13 01:50:00,
2013-02-12 20:52:00,42.1,27.5,29.95,East,90,5.0,10.0,56,0.00,,,0.00,Wunderground PWS Mod,2013-02-13 01:52:00,
2013-02-12 20:53:00,41.7,26.7,29.92,East,91,5.0,11.0,55,0.00,,,0.00,Wunderground PWS Mod,2013-02-13 01:53:00,
2013-02-12 20:54:00,42.1,27.5,29.95,East,90,5.0,10.0,56,0.00,,,0.00,Wunderground PWS Mod,2013-02-13 01:54:00,
2013-02-12 21:03:00,41.2,26.7,29.92,East,83,3.0,11.0,56,0.00,,,0.00,Wunderground PWS Mod,2013-02-13 02:03:00,
2013-02-12 21:10:00,42.1,27.5,29.95,East,90,5.0,10.0,56,0.00,,,0.00,Wunderground PWS Mod,2013-02-13 02:10:00,
2013-02-12 21:12:00,42.1,27.5,29.95,East,90,5.0,10.0,56,0.00,,,0.00,Wunderground PWS Mod,2013-02-13 02:12:00,
2013-02-12 21:13:00,40.9,26.4,29.92,East,87,3.0,11.0,56,0.00,,,0.00,Wunderground PWS Mod,2013-02-13 02:13:00,
2013-02-12 21:14:00,42.1,27.5,29.95,East,90,5.0,10.0,56,0.00,,,0.00,Wunderground PWS Mod,2013-02-13 02:14:00,
2013-02-12 21:24:00,40.6,26.5,29.92,ENE,78,3.0,11.0,57,0.00,,,0.00,Wunderground PWS Mod,2013-02-13 02:24:00,
2013-02-12 21:33:00,40.5,26.4,29.92,ENE,71,2.0,11.0,57,0.00,,,0.00,Wunderground PWS Mod,2013-02-13 02:33:00,
2013-02-12 21:44:00,40.4,26.4,29.93,ESE,119,3.0,11.0,57,0.00,,,0.00,Wunderground PWS Mod,2013-02-13 02:44:00,
2013-02-12 21:48:00,40.4,26.8,29.95,ESE,113,2.0,4.0,58,0.00,,,0.00,Wunderground PWS Mod,2013-02-13 02:48:00,
2013-02-12 21:54:00,40.4,26.4,29.93,ESE,103,2.0,11.0,57,0.00,,,0.00,Wunderground PWS Mod,2013-02-13 02:54:00,
2013-02-12 22:03:00,40.2,26.6,29.93,ENE,76,4.0,8.0,58,0.00,,,0.00,Wunderground PWS Mod,2013-02-13 03:03:00,
2013-02-12 22:13:00,40.1,26.5,29.94,ESE,102,3.0,8.0,58,0.00,,,0.00,Wunderground PWS Mod,2013-02-13 03:13:00,
2013-02-12 22:18:00,40.0,26.8,29.96,ESE,113,3.0,5.0,59,0.00,,,0.00,Wunderground PWS Mod,2013-02-13 03:18:00,
2013-02-12 22:24:00,40.0,26.0,29.94,ESE,110,5.0,8.0,57,0.00,,,0.00,Wunderground PWS Mod,2013-02-13 03:24:00,
2013-02-12 22:33:00,39.6,26.4,29.93,SE,128,2.0,8.0,59,0.00,,,0.00,Wunderground PWS Mod,2013-02-13 03:33:00,
2013-02-12 22:44:00,39.5,26.3,29.93,SE,128,1.0,8.0,59,0.00,,,0.00,Wunderground PWS Mod,2013-02-13 03:44:00,
2013-02-12 22:50:00,39.3,26.2,29.96,SE,135,1.0,3.0,59,0.00,,,0.00,Wunderground PWS Mod,2013-02-13 03:50:00,
2013-02-12 22:52:00,39.3,26.2,29.96,SE,135,1.0,3.0,59,0.00,,,0.00,Wunderground PWS Mod,2013-02-13 03:52:00,
2013-02-12 22:53:00,39.2,26.1,29.93,SE,128,0.0,8.0,59,0.00,,,0.00,Wunderground PWS Mod,2013-02-13 03:53:00,
2013-02-12 22:54:00,39.3,26.2,29.96,SE,135,1.0,3.0,59,0.00,,,0.00,Wunderground PWS Mod,2013-02-13 03:54:00,
2013-02-12 23:03:00,38.9,25.8,29.94,SE,128,2.0,5.0,59,0.00,,,0.00,Wunderground PWS Mod,2013-02-13 04:03:00,
2013-02-12 23:13:00,38.7,25.6,29.93,SE,128,2.0,5.0,59,0.00,,,0.00,Wunderground PWS Mod,2013-02-13 04:13:00,
2013-02-12 23:16:00,38.7,26.8,29.96,SE,135,2.0,3.0,62,0.00,,,0.00,Wunderground PWS Mod,2013-02-13 04:16:00,
2013-02-12 23:24:00,38.6,25.9,29.93,ESE,108,2.0,5.0,60,0.00,,,0.00,Wunderground PWS Mod,2013-02-13 04:24:00,
2013-02-12 23:33:00,38.2,26.3,29.94,ENE,76,3.0,5.0,62,0.00,,,0.00,Wunderground PWS Mod,2013-02-13 04:33:00,
2013-02-12 23:44:00,37.8,25.9,29.94,NE,56,2.0,5.0,62,0.00,,,0.00,Wunderground PWS Mod,2013-02-13 04:44:00,
2013-02-12 23:50:00,37.8,26.7,29.96,NE,45,3.0,5.0,64,0.00,,,0.00,Wunderground PWS Mod,2013-02-13 04:50:00,
2013-02-12 23:52:00,37.8,26.7,29.96,NE,45,3.0,5.0,64,0.00,,,0.00,Wunderground PWS Mod,2013-02-13 04:52:00,
2013-02-12 23:53:00,37.8,26.3,29.93,NE,55,4.0,5.0,63,0.00,,,0.00,Wunderground PWS Mod,2013-02-13 04:53:00,
2013-02-12 23:54:00,37.8,26.7,29.96,NE,45,3.0,5.0,64,0.00,,,0.00,Wunderground PWS Mod,2013-02-13 04:54:00,